When you browse on this site, cookies collect data to enhance your experience and personalize the content and advertising you see.
Visit our Privacy Policy to learn more. By continuing to use the site, you agree to this use of cookies and data.
  • In Czech Republic
  • List of Countries
  • For 7 days
  • Water Temperature
  • Weather Map
  • Weather Widgets
  • user-avatar
    Login

    Hourly Weather Lezhe

    Today, 24 September, Tuesday

    Time Temperature Precipitation Wind Pressure Humidity
    00:00 +19°C° 1.8 mm 2 mps 734 mmHg 93%
    01:00 +19°C° 0 mm 3 mps 734 mmHg 94%
    02:00 +19°C° 1.5 mm 3 mps 733 mmHg 94%
    03:00 +19°C° 1.5 mm 3 mps 733 mmHg 94%
    04:00 +19°C° 1.5 mm 3 mps 732 mmHg 94%
    05:00 +19°C° 1.5 mm 3 mps 732 mmHg 93%
    06:00 +19°C° 1.5 mm 3 mps 732 mmHg 92%
    07:00 +20°C° 1.5 mm 3 mps 732 mmHg 91%
    08:00 +21°C° 1.5 mm 3 mps 733 mmHg 86%
    09:00 +22°C° 1.5 mm 3 mps 733 mmHg 80%
    10:00 +23°C° 1.5 mm 4 mps 733 mmHg 75%
    11:00 +22°C° 0.8 mm 3 mps 733 mmHg 74%
    12:00 +22°C° 0.8 mm 3 mps 733 mmHg 73%
    13:00 +22°C° 0.8 mm 3 mps 732 mmHg 72%
    14:00 +22°C° 0.1 mm 3 mps 733 mmHg 72%
    15:00 +21°C° 0.1 mm 2 mps 733 mmHg 73%
    16:00 +21°C° 0.1 mm 2 mps 733 mmHg 74%
    17:00 +21°C° 0 mm 1 mps 733 mmHg 81%
    18:00 +19°C° 0 mm 1 mps 733 mmHg 87%
    19:00 +16°C° 0 mm 0 mps 733 mmHg 94%
    20:00 +18°C° 0 mm 1 mps 733 mmHg 93%
    21:00 +18°C° 0 mm 1 mps 734 mmHg 93%
    22:00 +18°C° 0 mm 1 mps 734 mmHg 93%
    23:00 +16°C° 0 mm 1 mps 734 mmHg 92%

    Tomorrow, 25 September, Wednesday

    Time Temperature Precipitation Wind Pressure Humidity
    00:00 +16°C° 0 mm 1 mps 734 mmHg 91%
    01:00 +16°C° 0 mm 1 mps 734 mmHg 91%
    02:00 +16°C° 0 mm 1 mps 734 mmHg 90%
    03:00 +16°C° 0 mm 1 mps 733 mmHg 90%
    04:00 +15°C° 0 mm 1 mps 733 mmHg 89%
    05:00 +16°C° 0 mm 1 mps 734 mmHg 86%
    06:00 +18°C° 0 mm 1 mps 734 mmHg 83%
    07:00 +19°C° 0 mm 1 mps 734 mmHg 80%
    08:00 +20°C° 0 mm 1 mps 734 mmHg 73%
    09:00 +22°C° 0 mm 1 mps 734 mmHg 67%
    10:00 +24°C° 0 mm 1 mps 735 mmHg 61%
    11:00 +24°C° 0 mm 1 mps 734 mmHg 59%
    12:00 +24°C° 0 mm 2 mps 734 mmHg 57%
    13:00 +25°C° 0 mm 3 mps 734 mmHg 55%
    14:00 +24°C° 0 mm 2 mps 734 mmHg 58%
    15:00 +24°C° 0 mm 2 mps 734 mmHg 61%
    16:00 +23°C° 0 mm 2 mps 733 mmHg 64%
    17:00 +22°C° 0 mm 1 mps 734 mmHg 72%
    18:00 +20°C° 0 mm 1 mps 734 mmHg 80%
    19:00 +18°C° 0 mm 1 mps 734 mmHg 88%
    20:00 +18°C° 0 mm 1 mps 734 mmHg 87%
    21:00 +18°C° 0 mm 1 mps 735 mmHg 87%
    22:00 +18°C° 0 mm 1 mps 735 mmHg 86%
    23:00 +18°C° 0 mm 1 mps 735 mmHg 87%

    Day after tomorrow, 26 September, Thursday

    Time Temperature Precipitation Wind Pressure Humidity
    00:00 +18°C° 0 mm 1 mps 735 mmHg 87%
    01:00 +18°C° 0 mm 1 mps 735 mmHg 87%
    02:00 +18°C° 0 mm 1 mps 735 mmHg 86%
    03:00 +18°C° 0 mm 1 mps 735 mmHg 84%
    04:00 +18°C° 0 mm 1 mps 735 mmHg 83%
    05:00 +18°C° 0.2 mm 1 mps 735 mmHg 81%
    06:00 +19°C° 0.2 mm 1 mps 735 mmHg 79%
    07:00 +19°C° 0.2 mm 1 mps 735 mmHg 77%
    08:00 +20°C° 0.7 mm 1 mps 735 mmHg 78%
    09:00 +20°C° 0.7 mm 1 mps 735 mmHg 78%
    10:00 +21°C° 0.7 mm 1 mps 736 mmHg 78%
    11:00 +22°C° 0.6 mm 1 mps 736 mmHg 77%
    12:00 +21°C° 0.6 mm 2 mps 735 mmHg 76%
    13:00 +23°C° 0.6 mm 2 mps 735 mmHg 75%
    14:00 +23°C° 0.7 mm 1 mps 735 mmHg 76%
    15:00 +23°C° 0.7 mm 1 mps 735 mmHg 76%
    16:00 +23°C° 0.7 mm 1 mps 736 mmHg 77%
    17:00 +21°C° 0.1 mm 1 mps 736 mmHg 81%
    18:00 +20°C° 0.1 mm 1 mps 736 mmHg 85%
    19:00 +19°C° 0.1 mm 1 mps 736 mmHg 89%
    20:00 +19°C° 0 mm 1 mps 737 mmHg 89%
    21:00 +19°C° 0 mm 1 mps 737 mmHg 89%
    22:00 +18°C° 0 mm 1 mps 737 mmHg 89%
    23:00 +18°C° 0 mm 1 mps 737 mmHg 89%

    27 September, Friday

    Time Temperature Precipitation Wind Pressure Humidity
    00:00 +17°C° 0 mm 2 mps 738 mmHg 89%
    01:00 +17°C° 0 mm 2 mps 738 mmHg 89%
    02:00 +16°C° 0 mm 2 mps 738 mmHg 89%
    03:00 +16°C° 0 mm 2 mps 738 mmHg 89%
    04:00 +16°C° 0 mm 2 mps 738 mmHg 89%
    05:00 +16°C° 0 mm 3 mps 738 mmHg 87%
    06:00 +17°C° 0 mm 3 mps 738 mmHg 85%
    07:00 +17°C° 0 mm 3 mps 738 mmHg 82%
    08:00 +19°C° 0 mm 3 mps 738 mmHg 74%
    09:00 +21°C° 0 mm 3 mps 739 mmHg 65%
    10:00 +22°C° 0 mm 3 mps 739 mmHg 56%
    11:00 +24°C° 0 mm 3 mps 739 mmHg 52%
    12:00 +25°C° 0 mm 3 mps 739 mmHg 47%
    13:00 +26°C° 0 mm 3 mps 738 mmHg 43%
    14:00 +26°C° 0 mm 3 mps 738 mmHg 44%
    15:00 +25°C° 0 mm 3 mps 738 mmHg 46%
    16:00 +25°C° 0 mm 3 mps 738 mmHg 47%
    17:00 +22°C° 0 mm 3 mps 738 mmHg 52%
    18:00 +20°C° 0 mm 3 mps 738 mmHg 57%
    19:00 +18°C° 0 mm 3 mps 739 mmHg 62%
    20:00 +18°C° 0 mm 3 mps 739 mmHg 63%
    21:00 +18°C° 0 mm 2 mps 739 mmHg 64%
    22:00 +17°C° 0 mm 2 mps 739 mmHg 65%
    23:00 +17°C° 0 mm 2 mps 739 mmHg 66%

    28 September, Saturday

    Time Temperature Precipitation Wind Pressure Humidity
    00:00 +17°C° 0 mm 2 mps 739 mmHg 67%
    01:00 +17°C° 0 mm 2 mps 739 mmHg 68%
    02:00 +16°C° 0 mm 2 mps 739 mmHg 68%
    03:00 +16°C° 0 mm 2 mps 739 mmHg 68%
    04:00 +16°C° 0 mm 2 mps 739 mmHg 69%
    05:00 +17°C° 0 mm 2 mps 739 mmHg 67%
    06:00 +18°C° 0 mm 2 mps 739 mmHg 65%
    07:00 +18°C° 0 mm 2 mps 739 mmHg 64%
    08:00 +22°C° 0 mm 1 mps 739 mmHg 57%
    09:00 +24°C° 0 mm 1 mps 740 mmHg 51%
    10:00 +25°C° 0 mm 0 mps 740 mmHg 44%
    11:00 +27°C° 0 mm 1 mps 739 mmHg 43%
    12:00 +27°C° 0 mm 2 mps 739 mmHg 42%
    13:00 +28°C° 0 mm 2 mps 739 mmHg 41%
    14:00 +27°C° 0 mm 2 mps 739 mmHg 45%
    15:00 +26°C° 0 mm 2 mps 738 mmHg 48%
    16:00 +25°C° 0 mm 2 mps 738 mmHg 52%
    17:00 +24°C° 0 mm 1 mps 738 mmHg 58%
    18:00 +22°C° 0 mm 1 mps 738 mmHg 65%
    19:00 +20°C° 0 mm 1 mps 739 mmHg 72%
    20:00 +20°C° 0 mm 1 mps 739 mmHg 72%
    21:00 +19°C° 0 mm 1 mps 739 mmHg 72%
    22:00 +19°C° 0 mm 1 mps 739 mmHg 71%
    23:00 +19°C° 0 mm 1 mps 739 mmHg 71%

    29 September, Sunday

    Time Temperature Precipitation Wind Pressure Humidity
    00:00 +19°C° 0 mm 1 mps 739 mmHg 71%
    01:00 +18°C° 0 mm 1 mps 738 mmHg 71%
    02:00 +18°C° 0 mm 1 mps 738 mmHg 71%
    03:00 +18°C° 0 mm 1 mps 738 mmHg 70%
    04:00 +18°C° 0 mm 1 mps 738 mmHg 69%
    05:00 +19°C° 0 mm 1 mps 738 mmHg 67%
    06:00 +20°C° 0 mm 1 mps 738 mmHg 64%
    07:00 +21°C° 0 mm 1 mps 738 mmHg 61%
    08:00 +23°C° 0 mm 1 mps 738 mmHg 55%
    09:00 +25°C° 0 mm 1 mps 738 mmHg 48%
    10:00 +27°C° 0 mm 1 mps 739 mmHg 42%
    11:00 +27°C° 0 mm 1 mps 738 mmHg 41%
    12:00 +27°C° 0 mm 2 mps 738 mmHg 40%
    13:00 +28°C° 0 mm 3 mps 738 mmHg 39%
    14:00 +27°C° 0 mm 2 mps 737 mmHg 43%
    15:00 +26°C° 0 mm 2 mps 737 mmHg 46%
    16:00 +25°C° 0 mm 2 mps 737 mmHg 50%
    17:00 +23°C° 0 mm 1 mps 737 mmHg 57%
    18:00 +22°C° 0 mm 1 mps 737 mmHg 64%
    19:00 +18°C° 0 mm 0 mps 737 mmHg 71%
    20:00 +19°C° 0 mm 1 mps 737 mmHg 70%
    21:00 +19°C° 0 mm 1 mps 737 mmHg 69%
    22:00 +19°C° 0 mm 1 mps 737 mmHg 68%
    23:00 +19°C° 0 mm 1 mps 737 mmHg 66%
    Show more